Weather in Muromskiy

Russia / Vladimir Oblast     55°33′34″N   42°01′38″E
temp.,
°C
wind,
m/s
gust,
m/s
humid.,
%
clouds,
%
prec.,
mm/h
press.,
hPa
HPBL,
m
6 march, sat
sat600:00−12nw34900 0.0 101335
03:00−14wnw22880 0.0 101520
06:00−14wsw228953 0.0 101521
09:00−11wsw239567 0.0 1016115
12:00−6wnw248588 0.0 1015556
15:00−5wnw247995 0.2 1014801
18:00−10wnw238686 0.1 101421
21:00−11w229073 0.1 101421
7 march, sun
sun700:00−11sw239699 0.2 101351
03:00−14sw349574 0.2 101168
06:00−14ssw599333 0.0 1008178
09:00−9ssw8148567 0.0 1004610
12:00−6ssw91492100 0.4 1000984
15:00−4ssw91593100 1.6 9951214
18:00−3ssw81593100 1.3 991856
21:00−6wnw91588100 2.0 991976
8 march, mon
mon800:00−9wsw6158031 0.0 993430
03:00−11wsw5119216 0.0 995263
06:00−12sw489558 0.0 994154
09:00−8wsw359479 0.1 994246
12:00−5wnw578059 0.0 996882
15:00−6w688456 0.1 9991060
18:00−8nw4988100 0.3 1001492
21:00−12nw489496 0.3 1005156
9 march, tue
tue900:00−14nw489570 0.0 1007139
03:00−16nw369658 0.0 101098
06:00−19nw349756 0.0 101274
09:00−17nnw479230 0.0 1014314
12:00−14nw358771 0.0 1015520
15:00−13nw468485 0.0 1015715
18:00−18nw479292 0.0 1016113
21:00−21nw359782 0.0 101990
10 march, wed
wed1000:00−23nw349877 0.0 102076
03:00−25nw349865 0.0 102161
06:00−27nw34970 0.0 102261
09:00−24nnw359519 0.0 1024248
12:00−19nnw358668 0.0 1024516
15:00−17nnw358384 0.0 1024684
18:00−21nnw239267 0.0 102521
21:00−23nw239333 0.0 102720